Location: Bay Harbour
(38.2612°N, 75.2555°W)
Time: 01:13:17
(UTC+00:00)

YAOGAN 6 - Pass Details

Date: 29 October 2020
Orbit: 464 x 504 km, 97.0° (Epoch: 02 December)

Event Time Altitude Azimuth Distance (km) Brightness Sun altitude
Rises 22:24:15 0° 172° (S) 2,560 6.3 -4.6°
Reaches altitude 10° 22:26:19 10° 174° (S) 1,689 5.4 -5.0°
Maximum altitude 22:29:56 72° 259° (W) 530 3.0 -5.7°
Drops below altitude 10° 22:33:38 10° 344° (NNW) 1,718 5.4 -6.4°
Sets 22:35:45 0° 347° (NNW) 2,610 6.3 -6.8°
